Change the Weather History Date:

Tuesday, February 18, 2014

  Actual Average Record
Temperature  
Mean Temperature 69 °F 56 °F  
Max Temperature 77 °F 66 °F 81 °F (1906)
Min Temperature 61 °F 47 °F 20 °F (1903)
Degree Days  
Heating Degree Days 0 9  
Month to date heating degree days 250 189  
Since 1 July heating degree days 1406 1132  
Cooling Degree Days 4 0  
Month to date cooling degree days 11 6  
Year to date cooling degree days 11 17  
Growing Degree Days 19 (Base 50)    
Moisture  
Dew Point 63 °F    
Average Humidity 85    
Maximum Humidity 100    
Minimum Humidity 69    
Precipitation  
Precipitation 0.00 in 0.13 in 2.67 in (1963)
Month to date precipitation 1.71 2.39  
Year to date precipitation 2.98 7.65  
Snow  
Snow 0.00 in 0.00 in T in (1910)
Month to date snowfall T 0.0  
Since 1 July snowfall 0.3 T  
Snow Depth 0.00 in    
Sea Level Pressure  
Sea Level Pressure 30.06 in    
Wind  
Wind Speed 10 mph (South)    
Max Wind Speed 21 mph    
Max Gust Speed 26 mph    
Visibility 4 miles    
Events Fog    
T = Trace of Precipitation, MM = Missing Value Source: NWS Daily Summary

Daily Weather History Graph

Daily Weather History Graph

Search for Another Location

Airport or City:

Trip Planner

Search our weather history database for the weather conditions in past years. The results will help you decide how hot, cold, wet, or windy it might be!

Date:

Astronomy

Feb. 18, 2014 Rise Set
Actual Time 6:53 AM CST 6:07 PM CST
Civil Twilight 6:28 AM CST 6:31 PM CST
Nautical Twilight 6:00 AM CST 6:59 PM CST
Astronomical Twilight 5:33 AM CST 7:27 PM CST
Moon 9:40 PM CST (2/18) 8:44 AM CST (2/18)
Length of Visible Light 12h 02m
Length of Day
11h 14m
Waning Gibbous, 87% of the Moon is Illuminated
Feb 18
Waning Gibbous
Feb 22
Last Quarter
Mar 1
New
Mar 8
First Quarter
Mar 16
Full

Hourly Weather History & Observations

Time (CST) Temp. Dew Point Humidity Pressure Visibility Wind Dir Wind Speed Gust Speed Precip Events Conditions
12:06 AM 64.0 °F 63.0 °F 96% 30.11 in 2.0 mi SW 3.5 mph - N/A   Overcast
12:20 AM 64.0 °F 63.0 °F 96% 30.11 in 1.2 mi SW 6.9 mph - N/A   Overcast
12:34 AM 64.0 °F 63.0 °F 96% 30.11 in 0.5 mi SW 5.8 mph - N/A Fog Fog
12:50 AM 64.4 °F 62.6 °F 94% 30.11 in 1.5 mi SW 5.8 mph - N/A   Overcast
12:53 AM 64.0 °F 63.0 °F 96% 30.11 in 3.0 mi SW 4.6 mph - N/A   Overcast
1:53 AM 63.0 °F 62.1 °F 97% 30.10 in 1.5 mi SSW 3.5 mph - N/A   Overcast
2:00 AM 63.0 °F 62.1 °F 97% 30.10 in 1.0 mi SSW 4.6 mph - N/A   Mist
2:11 AM 63.0 °F 62.1 °F 97% 30.09 in 0.8 mi SSW 4.6 mph - N/A   Mist
2:36 AM 63.0 °F 62.1 °F 97% 30.09 in 0.2 mi SSW 5.8 mph - N/A Fog Fog
2:53 AM 63.0 °F 62.1 °F 97% 30.09 in 0.2 mi SSW 6.9 mph - N/A Fog Fog
3:53 AM 63.0 °F 62.1 °F 97% 30.08 in 0.2 mi South 4.6 mph - N/A Fog Fog
4:53 AM 63.0 °F 62.1 °F 97% 30.08 in 0.2 mi South 5.8 mph - N/A Fog Fog
5:53 AM 62.1 °F 61.0 °F 96% 30.08 in 0.2 mi South 3.5 mph - N/A Fog Fog
6:53 AM 61.0 °F 61.0 °F 100% 30.09 in 0.2 mi SSW 4.6 mph - N/A Fog Fog
7:53 AM 62.1 °F 61.0 °F 96% 30.10 in 0.2 mi South 5.8 mph - N/A Fog Fog
8:53 AM 64.0 °F 63.0 °F 96% 30.10 in 0.2 mi South 8.1 mph - N/A Fog Fog
9:21 AM 64.9 °F 64.0 °F 97% 30.11 in 0.5 mi South 10.4 mph - N/A Fog Fog
9:53 AM 66.0 °F 64.9 °F 96% 30.11 in 1.0 mi South 8.1 mph - N/A   Overcast
10:28 AM 66.9 °F 64.9 °F 93% 30.11 in 10.0 mi South 12.7 mph - N/A   Overcast
10:53 AM 73.0 °F 66.0 °F 79% 30.11 in 10.0 mi South 13.8 mph - N/A   Overcast
11:46 AM 75.0 °F 64.9 °F 71% 30.09 in 10.0 mi SSW 16.1 mph 21.9 mph N/A   Mostly Cloudy
11:53 AM 73.9 °F 64.0 °F 71% 30.08 in 10.0 mi SSW 16.1 mph - N/A   Mostly Cloudy
12:02 PM 77.0 °F 64.9 °F 66% 30.08 in 10.0 mi SSW 15.0 mph 24.2 mph N/A   Scattered Clouds
12:53 PM 75.9 °F 64.0 °F 67% 30.05 in 10.0 mi South 19.6 mph - N/A   Scattered Clouds
1:53 PM 75.0 °F 64.0 °F 69% 30.04 in 10.0 mi South 12.7 mph 21.9 mph N/A   Mostly Cloudy
2:53 PM 75.0 °F 64.0 °F 69% 30.01 in 10.0 mi South 13.8 mph 23.0 mph N/A   Mostly Cloudy
3:53 PM 73.9 °F 64.0 °F 71% 30.01 in 10.0 mi South 13.8 mph 21.9 mph N/A   Overcast
4:53 PM 72.0 °F 63.0 °F 73% 30.01 in 10.0 mi South 12.7 mph - N/A   Scattered Clouds
5:53 PM 68.0 °F 62.1 °F 81% 30.01 in 10.0 mi South 12.7 mph - N/A   Partly Cloudy
6:53 PM 64.9 °F 62.1 °F 90% 30.01 in 10.0 mi South 10.4 mph - N/A   Clear
7:53 PM 63.0 °F 61.0 °F 93% 30.01 in 8.0 mi South 8.1 mph - N/A   Clear
8:28 PM 63.0 °F 62.1 °F 97% 30.00 in 7.0 mi South 10.4 mph - N/A   Partly Cloudy
8:53 PM 64.0 °F 62.1 °F 93% 30.01 in 8.0 mi South 9.2 mph - N/A   Scattered Clouds
8:57 PM 64.0 °F 62.1 °F 93% 30.01 in 7.0 mi South 10.4 mph - N/A   Mostly Cloudy
9:27 PM 64.0 °F 63.0 °F 96% 30.01 in 1.8 mi South 11.5 mph - N/A   Overcast
9:46 PM 64.0 °F 63.0 °F 96% 30.01 in 2.0 mi South 11.5 mph - N/A   Overcast
9:53 PM 64.0 °F 63.0 °F 96% 30.02 in 1.8 mi South 10.4 mph - N/A   Overcast
10:06 PM 64.0 °F 63.0 °F 96% 30.01 in 1.2 mi South 15.0 mph 19.6 mph N/A   Overcast
10:53 PM 63.0 °F 63.0 °F 100% 30.01 in 1.0 mi South 10.4 mph - N/A   Mist
11:31 PM 64.0 °F 63.0 °F 96% 30.02 in 0.8 mi South 8.1 mph - N/A   Mist
11:46 PM 64.0 °F 63.0 °F 96% 30.01 in 1.2 mi South 9.2 mph - N/A   Overcast
11:53 PM 64.0 °F 63.0 °F 96% 30.01 in 1.5 mi South 11.5 mph - N/A   Overcast